Date,TemperatureHighF,TemperatureAvgF,TemperatureLowF,DewpointHighF,DewpointAvgF,DewpointLowF,HumidityHigh,HumidityAvg,HumidityLow,PressureMaxIn,PressureMinIn,WindSpeedMaxMPH,WindSpeedAvgMPH,GustSpeedMaxMPH,PrecipitationSumIn
2013-4-1,58,45,32,27,18,10,63,36,18,29.90,29.70,5,1,9,0.00
2013-4-2,51,37,28,29,19,11,88,52,25,29.84,29.60,5,1,12,0.00
2013-4-3,45,33,26,29,25,17,93,74,34,30.14,29.84,5,0,7,0.02
2013-4-4,58,42,28,27,18,10,83,46,17,30.18,30.01,4,1,9,0.00
2013-4-5,60,48,39,21,15,11,38,27,17,30.00,29.61,8,2,18,0.00
2013-4-6,58,47,38,26,21,18,53,37,23,29.71,29.60,7,2,15,0.00
2013-4-7,56,47,39,23,18,13,49,33,20,29.60,29.50,9,3,21,0.00
2013-4-8,60,47,34,25,18,11,53,33,16,29.52,29.17,9,2,16,0.00
2013-4-9,46,29,18,25,21,15,91,74,32,29.75,29.14,6,1,9,0.05
2013-4-10,32,26,23,24,21,18,92,81,61,29.93,29.75,5,1,11,0.09
2013-4-11,46,32,17,29,21,14,90,68,34,29.96,29.83,7,2,12,0.00
2013-4-12,51,38,29,29,23,15,90,59,26,29.86,29.75,6,1,10,0.01
2013-4-13,56,42,29,23,18,9,77,43,21,29.84,29.43,9,3,18,0.00
2013-4-14,54,45,37,25,22,18,50,41,30,29.45,29.31,11,4,23,0.00
2013-4-15,59,47,37,24,20,13,51,36,18,29.50,29.37,10,3,23,0.00
2013-4-16,63,47,37,24,18,12,41,32,16,29.56,29.40,9,2,16,0.00
2013-4-17,49,36,22,28,19,7,90,55,24,29.67,29.30,8,1,19,0.00
2013-4-18,29,20,14,16,12,5,86,73,45,30.29,29.68,10,1,11,0.09
2013-4-19,48,30,13,13,6,1,68,39,20,30.39,30.00,7,2,10,0.00
2013-4-20,45,36,29,27,17,6,66,48,31,30.00,29.76,8,1,10,0.00
2013-4-21,57,41,28,25,16,3,77,43,16,30.05,29.88,8,2,13,0.00
2013-4-22,61,48,36,25,15,10,57,29,17,29.90,29.58,10,3,16,0.00
2013-4-23,44,32,18,29,23,12,92,70,35,30.04,29.55,7,1,18,0.08
2013-4-24,55,36,18,19,9,-2,88,39,14,30.17,30.05,9,2,13,0.01
2013-4-25,55,39,29,34,25,18,95,61,33,30.14,29.80,6,1,15,0.14
2013-4-26,52,38,31,36,31,27,96,80,39,30.18,29.87,3,0,7,0.04
2013-4-27,61,43,28,30,23,15,89,52,20,30.21,29.99,7,1,9,0.00
2013-4-28,66,50,32,20,14,8,53,27,11,29.99,29.71,7,1,8,0.00
2013-4-29,69,53,39,24,17,11,39,25,13,29.72,29.48,8,2,20,0.00
2013-4-30,70,56,44,21,15,10,32,21,13,29.52,29.41,8,2,16,0.00